EW0765 Weather Reports


Display with metric or nautical units.
time (UTC)temp
F
wind
direction
speed
MPH
gust
MPH
rain 1hr
in
rain 24hr
in
rain mn
in
humidity
%
barometer
mb
20201023020154 64 271 0.0 0.0 0.00 0.05 0.05 84 1018.4
20201023015609 64 271 0.0 0.0 0.00 0.05 0.05 84 1018.5
20201023015046 64 271 0.0 0.0 0.00 0.05 0.05 85 1018.4
20201023014632 64 271 0.0 0.0 0.00 0.05 0.05 85 1018.5
20201023014049 64 271 0.0 0.0 0.00 0.05 0.05 84 1018.5
20201023013551 64 271 0.0 0.0 0.00 0.05 0.05 85 1018.4
20201023013120 64 271 0.0 0.0 0.00 0.05 0.05 84 1018.5
20201023012550 64 271 0.0 0.0 0.00 0.05 0.05 85 1018.5
20201023012054 64 271 0.0 0.0 0.00 0.05 0.05 84 1018.5
20201023011746 64 271 0.0 0.0 0.00 0.05 0.05 85 1018.5
20201023011048 64 271 0.0 0.0 0.00 0.05 0.05 85 1018.6
20201023010546 64 271 0.0 0.0 0.00 0.05 0.05 84 1018.6
20201023010136 64 271 0.0 0.0 0.00 0.05 0.05 84 1018.7
20201023005549 64 271 0.0 0.0 0.00 0.05 0.05 84 1018.7
20201023005107 64 271 0.0 0.0 0.00 0.05 0.05 84 1018.7
20201023004607 64 271 0.0 0.0 0.00 0.05 0.05 84 1018.8
20201023004043 64 271 0.0 0.0 0.00 0.05 0.05 84 1018.8
20201023003543 65 271 0.0 0.0 0.00 0.05 0.05 83 1018.8
20201023003113 65 271 0.0 0.0 0.00 0.05 0.05 83 1018.8
20201023002601 65 271 0.0 0.0 0.00 0.05 0.05 83 1018.8
20201023002053 65 271 0.0 0.0 0.00 0.05 0.05 82 1018.8
20201023001633 65 271 0.0 0.0 0.00 0.05 0.05 82 1018.8
20201023001043 65 271 0.0 0.0 0.00 0.05 0.05 82 1018.8
20201023000545 65 271 0.0 0.0 0.00 0.05 0.05 81 1018.8
20201023000144 66 271 0.0 0.0 0.00 0.05 0.05 81 1018.8
20201022235546 66 271 0.0 0.0 0.00 0.05 0.05 81 1018.9
20201022235104 66 271 0.0 0.0 0.00 0.05 0.05 81 1018.9
20201022234625 66 271 0.0 0.0 0.00 0.05 0.05 81 1018.8
20201022234045 67 271 0.0 0.0 0.00 0.05 0.05 81 1018.8
20201022233543 67 271 0.0 0.0 0.00 0.05 0.05 80 1018.8
20201022233201 67 271 0.0 0.0 0.00 0.05 0.05 80 1018.9
20201022232544 67 271 0.0 0.0 0.00 0.05 0.05 79 1018.9
20201022232041 67 271 0.0 0.0 0.00 0.05 0.05 79 1018.9
20201022231550 68 271 0.0 0.0 0.00 0.05 0.05 78 1018.9
20201022231045 68 271 0.0 0.0 0.00 0.05 0.05 78 1018.9
20201022230609 68 271 0.0 0.0 0.00 0.05 0.05 78 1018.9
20201022230059 68 271 0.0 0.0 0.00 0.05 0.05 77 1019.0
20201022225610 68 271 0.0 0.0 0.00 0.05 0.05 77 1019.0
20201022225040 69 271 0.0 0.0 0.00 0.05 0.05 76 1019.0
20201022224659 69 271 0.0 0.0 0.00 0.05 0.05 76 1019.0
20201022224109 69 271 0.0 0.0 0.00 0.05 0.05 76 1019.0
20201022223540 69 271 0.0 0.0 0.00 0.05 0.05 75 1019.0
20201022223109 70 271 0.0 0.0 0.00 0.05 0.05 75 1019.1
20201022222539 70 271 0.0 0.0 0.00 0.05 0.05 74 1019.0
20201022222039 70 271 0.0 0.0 0.00 0.05 0.05 74 1019.1
20201022221622 70 271 0.0 0.0 0.00 0.05 0.05 73 1019.0
20201022221040 71 271 0.0 0.0 0.00 0.05 0.05 72 1019.0
20201022220543 71 271 0.0 0.0 0.00 0.05 0.05 72 1019.0
20201022220141 71 271 0.0 2.0 0.00 0.05 0.05 71 1019.0
20201022215543 71 306 0.0 2.0 0.00 0.05 0.05 71 1018.9
20201022215039 72 307 0.0 0.0 0.00 0.05 0.05 70 1018.9
20201022214632 72 307 0.0 0.0 0.00 0.05 0.05 69 1019.0
20201022214039 72 307 0.0 0.0 0.00 0.05 0.05 69 1019.0
20201022213545 73 308 0.0 0.0 0.00 0.05 0.05 68 1018.9
20201022213053 73 286 0.0 4.0 0.00 0.05 0.05 69 1019.0
20201022212537 73 286 0.0 4.0 0.00 0.05 0.05 67 1018.9
20201022212101 74 321 0.0 5.0 0.00 0.05 0.05 67 1018.9
20201022211614 74 228 0.0 5.0 0.00 0.05 0.05 66 1018.9
20201022211043 74 208 0.0 1.0 0.00 0.05 0.05 64 1018.9
20201022210537 74 327 0.0 3.0 0.00 0.05 0.05 63 1018.9
20201022210129 74 325 0.0 3.0 0.00 0.05 0.05 63 1018.9
20201022205537 74 51 0.0 3.0 0.00 0.05 0.05 64 1019.0
20201022205038 74 255 0.0 3.0 0.00 0.05 0.05 65 1019.0
20201022204720 74 165 0.0 4.0 0.00 0.05 0.05 66 1018.9
20201022204036 74 39 0.0 4.0 0.00 0.05 0.05 65 1018.9
20201022203537 74 281 0.0 4.0 0.00 0.05 0.05 67 1018.9
20201022203049 74 154 0.0 3.0 0.00 0.05 0.05 65 1018.8
20201022202526 74 294 0.0 3.0 0.00 0.05 0.05 68 1018.7
20201022202025 74 297 0.0 3.0 0.00 0.05 0.05 68 1018.7
20201022201612 74 307 0.0 2.0 0.00 0.05 0.05 67 1018.6
20201022201022 74 307 0.0 2.0 0.00 0.05 0.05 69 1018.6
20201022200533 75 180 0.0 7.0 0.00 0.05 0.05 66 1018.7
20201022200046 74 258 1.0 7.0 0.00 0.05 0.05 64 1018.6
20201022195521 74 355 0.0 4.0 0.00 0.05 0.05 66 1018.7
20201022195024 74 288 0.0 5.0 0.00 0.05 0.05 64 1018.6
20201022194539 74 252 0.0 6.0 0.00 0.05 0.05 64 1018.7
20201022194035 74 209 0.0 4.0 0.00 0.05 0.05 66 1018.6
20201022193521 75 299 0.0 6.0 0.00 0.05 0.05 69 1018.7
20201022193032 75 283 0.0 6.0 0.00 0.05 0.05 68 1018.7
20201022192520 74 257 0.0 6.0 0.00 0.05 0.05 67 1018.7
20201022192019 75 261 0.0 2.0 0.00 0.05 0.05 65 1018.8
20201022191550 75 309 0.0 3.0 0.00 0.05 0.05 66 1018.9
20201022191025 75 277 0.0 3.0 0.00 0.05 0.05 65 1018.9
20201022190548 75 225 0.0 2.0 0.00 0.05 0.05 67 1019.0
20201022190040 75 200 0.0 3.0 0.00 0.05 0.05 67 1019.0
20201022185522 75 190 0.0 3.0 0.00 0.05 0.05 65 1019.1
20201022185025 75 219 0.0 3.0 0.00 0.05 0.05 65 1019.1
20201022184558 75 306 0.0 4.0 0.00 0.05 0.05 68 1019.1
20201022184018 75 26 0.0 4.0 0.00 0.05 0.05 68 1019.2
20201022183535 74 112 0.0 4.0 0.00 0.05 0.05 69 1019.2
20201022183026 74 14 0.0 4.0 0.00 0.05 0.05 69 1019.2
20201022182523 74 226 0.0 4.0 0.00 0.05 0.05 71 1019.3
20201022182414 73 232 0.0 3.0 0.00 0.05 0.05 71 1019.3
20201022182301 73 290 0.0 4.0 0.00 0.05 0.05 74 1019.4
20201022181011 72 219 0.0 4.0 0.00 0.05 0.05 79 1019.4
20201022180516 72 30 0.0 1.0 0.00 0.05 0.05 80 1019.5
20201022180021 71 38 0.0 1.0 0.00 0.05 0.05 79 1019.6
20201022175513 71 38 0.0 1.0 0.00 0.05 0.05 80 1019.7
20201022175021 71 46 0.0 3.0 0.00 0.05 0.05 84 1019.8
20201022174525 71 46 0.0 3.0 0.00 0.05 0.05 81 1019.9
20201022173131 70 48 0.0 4.0 0.00 0.05 0.05 82 1020.2
20201022172557 69 44 0.0 4.0 0.00 0.05 0.05 83 1020.4
20201022172130 69 38 0.0 2.0 0.00 0.05 0.05 84 1020.5
20201022171722 69 13 0.0 1.0 0.00 0.05 0.05 84 1020.6
20201022171105 68 13 0.0 3.0 0.00 0.05 0.05 85 1020.8
20201022170555 68 12 0.0 4.0 0.00 0.05 0.05 85 1020.9
20201022170200 68 32 0.0 4.0 0.00 0.06 0.05 85 1021.0
20201022165634 68 37 0.0 4.0 0.00 0.06 0.05 87 1021.1
20201022165054 67 19 0.0 1.0 0.00 0.06 0.05 88 1021.1
20201022164632 67 20 0.0 1.0 0.00 0.06 0.05 90 1021.2
20201022164049 66 22 0.0 1.0 0.00 0.06 0.05 90 1021.2
20201022163550 66 21 0.0 0.0 0.00 0.06 0.05 91 1021.3
20201022163155 65 21 0.0 0.0 0.00 0.06 0.05 92 1021.4
20201022162608 65 21 0.0 3.0 0.00 0.06 0.05 92 1021.4
20201022162043 64 18 0.0 2.0 0.00 0.06 0.05 93 1021.5
20201022161549 63 360 0.0 0.0 0.00 0.06 0.05 95 1021.5
20201022161039 63 360 0.0 0.0 0.00 0.06 0.05 95 1021.6
20201022160542 63 360 0.0 0.0 0.00 0.06 0.05 94 1021.7
20201022160115 62 360 0.0 0.0 0.00 0.06 0.05 95 1021.8
20201022155544 62 360 0.0 0.0 0.00 0.06 0.05 95 1021.9
20201022155041 62 360 0.0 0.0 0.00 0.06 0.05 96 1021.9
20201022154538 61 355 0.0 0.0 0.00 0.06 0.05 96 1022.0
20201022154034 61 355 0.0 2.0 0.00 0.06 0.05 97 1022.0
20201022153537 60 56 0.0 1.0 0.00 0.06 0.05 97 1022.0
20201022153128 60 58 0.0 1.0 0.00 0.06 0.05 97 1022.0
20201022152533 60 58 0.0 1.0 0.00 0.06 0.05 97 1022.2
20201022152038 59 57 0.0 0.0 0.00 0.06 0.05 98 1022.2
20201022151601 59 58 0.0 0.0 0.00 0.06 0.05 98 1022.2
20201022151033 59 58 0.0 0.0 0.00 0.06 0.05 98 1022.2
20201022150537 59 59 0.0 0.0 0.00 0.06 0.05 98 1022.2
20201022150103 58 58 0.0 0.0 0.00 0.06 0.05 98 1022.3
20201022145530 58 58 0.0 0.0 0.00 0.06 0.05 98 1022.3
20201022145024 58 58 0.0 0.0 0.00 0.06 0.05 98 1022.4
20201022144600 57 58 0.0 0.0 0.00 0.06 0.05 98 1022.4
20201022144049 57 58 0.0 1.0 0.00 0.06 0.05 98 1022.4
20201022143540 57 58 0.0 1.0 0.00 0.06 0.05 98 1022.4
20201022143036 57 57 0.0 0.0 0.00 0.06 0.05 98 1022.4
20201022142529 57 57 0.0 0.0 0.00 0.06 0.05 98 1022.5
20201022142019 56 57 0.0 0.0 0.00 0.06 0.05 98 1022.7
20201022141540 56 57 0.0 0.0 0.00 0.06 0.05 98 1022.8
20201022141021 56 57 0.0 0.0 0.00 0.06 0.05 98 1022.8
20201022140520 56 57 0.0 0.0 0.00 0.06 0.05 98 1022.8
20201022140114 56 57 0.0 0.0 0.00 0.06 0.05 98 1022.9
20201022135943 56 57 0.0 0.0 0.00 0.06 0.05 98 1022.9
20201022135435 55 57 0.0 0.0 0.00 0.06 0.05 98 1022.9
20201022134547 55 57 0.0 0.0 0.00 0.06 0.05 98 1022.9
20201022134035 55 57 0.0 0.0 0.00 0.06 0.05 98 1022.9
20201022133521 55 57 0.0 2.0 0.00 0.06 0.05 97 1022.9
20201022133057 55 57 0.0 2.0 0.00 0.06 0.05 97 1022.9
20201022132515 55 57 0.0 2.0 0.00 0.06 0.05 97 1022.9
20201022132018 55 355 0.0 0.0 0.00 0.06 0.05 97 1022.9
20201022131534 55 10 0.0 2.0 0.00 0.06 0.05 97 1022.9
20201022131017 55 5 0.0 2.0 0.00 0.06 0.05 97 1022.8
20201022130514 55 5 0.0 0.0 0.00 0.06 0.05 97 1022.6
20201022130032 55 5 0.0 0.0 0.00 0.11 0.05 97 1022.6
20201022125513 55 5 0.0 0.0 0.00 0.11 0.05 97 1022.6
20201022125014 55 5 0.0 0.0 0.00 0.11 0.05 97 1022.6
20201022124531 55 5 0.0 0.0 0.00 0.11 0.05 97 1022.5
20201022124015 55 98 0.0 0.0 0.00 0.11 0.05 98 1022.3
20201022123515 55 98 0.0 0.0 0.00 0.11 0.05 98 1022.1
20201022123043 55 98 0.0 0.0 0.00 0.11 0.05 97 1022.2
20201022122516 54 98 0.0 0.0 0.00 0.11 0.05 97 1022.2
20201022122019 54 98 0.0 0.0 0.00 0.11 0.05 97 1022.2
20201022121524 54 98 0.0 0.0 0.00 0.11 0.05 97 1022.0
20201022121012 54 98 0.0 0.0 0.00 0.11 0.05 97 1022.0
20201022120519 54 98 0.0 0.0 0.00 0.11 0.05 97 1022.0
20201022120022 54 98 0.0 0.0 0.00 0.16 0.05 97 1022.0
20201022115520 54 98 0.0 0.0 0.00 0.16 0.05 97 1022.0
20201022115015 54 98 0.0 0.0 0.00 0.16 0.05 97 1022.1
20201022114546 54 98 0.0 0.0 0.00 0.16 0.05 97 1022.0
20201022114010 54 98 0.0 0.0 0.00 0.16 0.05 97 1022.0
20201022113511 54 98 0.0 0.0 0.00 0.16 0.05 97 1022.0
20201022113026 54 98 0.0 0.0 0.00 0.16 0.05 97 1022.0
20201022112519 54 98 0.0 0.0 0.00 0.16 0.05 97 1022.1
20201022112028 54 98 0.0 1.0 0.00 0.16 0.05 97 1022.1
20201022111530 54 98 0.0 1.0 0.00 0.16 0.05 97 1022.2
20201022111012 54 97 0.0 1.0 0.00 0.16 0.05 97 1022.2
20201022110518 54 97 0.0 1.0 0.00 0.16 0.05 97 1022.2
20201022110024 54 101 0.0 0.0 0.00 0.20 0.05 97 1022.2
20201022105525 54 101 0.0 2.0 0.00 0.20 0.05 97 1022.4
20201022105028 54 101 0.0 3.0 0.00 0.20 0.05 97 1022.4
20201022104519 54 90 0.0 3.0 0.00 0.20 0.05 97 1022.4
20201022104025 54 74 0.0 3.0 0.00 0.20 0.05 97 1022.5
20201022103511 54 105 0.0 3.0 0.00 0.20 0.05 97 1022.6
20201022103026 54 48 0.0 4.0 0.01 0.20 0.05 97 1022.6
20201022102514 54 39 0.0 4.0 0.01 0.20 0.05 97 1022.7
20201022102023 54 48 0.0 1.0 0.02 0.20 0.05 97 1022.6
20201022101519 54 47 0.0 2.0 0.02 0.20 0.05 97 1022.6
20201022101018 54 47 0.0 2.0 0.02 0.20 0.05 97 1022.6
20201022100511 54 63 0.0 5.0 0.02 0.20 0.05 97 1022.4
20201022100035 54 64 0.0 5.0 0.02 0.38 0.05 97 1022.3
20201022095512 54 5 0.0 2.0 0.02 0.38 0.05 97 1022.4
20201022095010 54 355 0.0 3.0 0.02 0.38 0.05 96 1022.5
20201022094536 54 355 0.0 3.0 0.02 0.38 0.05 97 1022.2
20201022094009 54 71 0.0 0.0 0.02 0.38 0.05 97 1022.1
20201022093520 54 71 0.0 0.0 0.02 0.38 0.05 97 1022.1
20201022093027 54 71 0.0 0.0 0.01 0.37 0.04 96 1022.0
20201022092509 54 71 0.0 0.0 0.01 0.37 0.04 96 1021.8
20201022092012 54 71 0.0 0.0 0.00 0.36 0.03 96 1021.9
20201022091519 54 71 0.0 0.0 0.00 0.36 0.03 97 1021.8
20201022091010 54 71 0.0 0.0 0.00 0.36 0.03 96 1021.9
20201022090511 53 71 0.0 0.0 0.00 0.36 0.03 96 1021.8
20201022090024 53 71 0.0 0.0 0.00 0.52 0.03 96 1021.7
20201022085509 53 71 0.0 0.0 0.00 0.52 0.03 96 1021.7
20201022085012 53 71 0.0 0.0 0.00 0.52 0.03 96 1021.7
20201022084522 53 69 0.0 0.0 0.00 0.52 0.03 96 1021.7
20201022084018 53 69 0.0 0.0 0.00 0.52 0.03 96 1021.7
20201022083509 53 69 0.0 0.0 0.00 0.52 0.03 96 1021.6
20201022083020 53 69 0.0 0.0 0.00 0.52 0.03 96 1021.6
20201022082510 53 69 0.0 0.0 0.00 0.52 0.03 96 1021.6
20201022082010 54 65 0.0 0.0 0.00 0.52 0.03 96 1021.7
20201022081658 53 65 0.0 0.0 0.00 0.52 0.03 96 1021.8
20201022081122 54 65 0.0 0.0 0.00 0.52 0.03 96 1021.9
20201022080559 54 65 0.0 0.0 0.00 0.52 0.03 96 1021.9
20201022080239 54 65 0.0 0.0 0.00 0.52 0.03 96 1022.1
20201022075559 54 64 0.0 0.0 0.00 0.83 0.03 96 1022.2
20201022075100 54 64 0.0 2.0 0.00 0.83 0.03 96 1022.2
20201022074722 54 78 0.0 0.0 0.00 0.83 0.03 96 1022.3
20201022074124 54 79 0.0 0.0 0.00 0.83 0.03 96 1022.4
20201022073559 54 78 0.0 0.0 0.00 0.83 0.03 96 1022.4
20201022073152 54 78 0.0 0.0 0.00 0.83 0.03 96 1022.4
20201022072615 54 78 0.0 0.0 0.01 0.83 0.03 96 1022.4
20201022072126 54 78 0.0 2.0 0.01 0.83 0.03 96 1022.4
20201022071657 54 58 0.0 0.0 0.01 0.83 0.03 96 1022.4
20201022071122 54 58 0.0 0.0 0.02 0.83 0.03 96 1022.5
20201022070603 54 58 0.0 0.0 0.02 0.83 0.03 96 1022.5
20201022070228 54 58 0.0 0.0 0.02 0.83 0.03 96 1022.5
20201022065553 54 58 0.0 2.0 0.02 1.02 0.03 96 1022.5
20201022065054 54 47 0.0 1.0 0.02 1.02 0.03 96 1022.5
20201022064725 54 41 0.0 0.0 0.02 1.02 0.03 96 1022.4
20201022064129 54 41 0.0 1.0 0.02 1.02 0.03 96 1022.5
20201022063557 54 35 0.0 1.0 0.02 1.02 0.03 96 1022.7
20201022063312 54 35 0.0 0.0 0.02 1.02 0.03 96 1022.8
20201022062553 54 35 0.0 0.0 0.01 1.01 0.02 96 1023.0
20201022062055 54 35 0.0 0.0 0.02 1.01 0.02 96 1023.0
20201022061841 54 35 0.0 0.0 0.02 1.01 0.02 96 1023.0
20201022061052 54 35 0.0 0.0 0.01 1.00 0.01 95 1023.0
20201022060552 54 35 0.0 0.0 0.01 1.00 0.01 96 1022.8
20201022060112 54 35 0.0 0.0 0.01 1.08 0.01 96 1022.9
20201022055629 54 35 0.0 0.0 0.01 1.08 0.01 96 1022.9
20201022055051 54 35 0.0 0.0 0.01 1.08 0.01 96 1023.0
20201022054734 54 35 0.0 0.0 0.01 1.08 0.01 96 1023.0
20201022054051 54 34 0.0 0.0 0.01 1.08 0.01 96 1023.0
20201022053557 54 35 0.0 0.0 0.01 1.08 0.01 96 1023.0
20201022053054 54 35 0.0 0.0 0.01 1.08 0.01 96 1022.8
20201022052551 54 35 0.0 0.0 0.01 1.08 0.01 96 1022.9
20201022052058 54 35 0.0 0.0 0.00 1.07 0.00 96 1022.9
20201022051735 54 35 0.0 0.0 0.00 1.07 0.00 96 1023.0
20201022051049 54 35 0.0 0.0 0.00 1.07 0.00 96 1023.0
20201022050549 54 35 0.0 0.0 0.00 1.07 0.00 96 1023.0
20201022050126 54 35 0.0 0.0 0.00 1.14 0.00 96 1022.8
20201022045551 54 35 0.0 0.0 0.00 1.14 0.00 96 1022.6
20201022045052 54 35 0.0 0.0 0.00 1.14 0.00 96 1022.6
20201022044726 54 35 0.0 0.0 0.00 1.14 0.00 96 1022.6
20201022044051 54 35 0.0 0.0 0.00 1.14 0.00 96 1022.5
20201022043605 54 35 0.0 0.0 0.00 1.14 0.00 96 1022.7
20201022043227 54 35 0.0 0.0 0.00 1.14 0.00 96 1022.8
20201022042550 54 35 0.0 0.0 0.00 1.14 0.00 96 1022.7
20201022042049 54 35 0.0 0.0 0.00 1.14 0.00 96 1022.8
20201022041622 54 35 0.0 0.0 0.00 1.14 0.00 96 1022.8
20201022041045 53 35 0.0 0.0 0.00 1.14 0.00 96 1022.8
20201022040553 53 35 0.0 0.0 0.00 1.14 0.00 96 1023.2
20201022040136 53 35 0.0 0.0 0.00 1.14 1.14 96 1023.2
20201022035549 53 35 0.0 0.0 0.00 1.14 1.14 96 1023.4
20201022035047 53 35 0.0 0.0 0.00 1.14 1.14 96 1023.5
20201022034705 53 35 0.0 0.0 0.00 1.14 1.14 96 1023.3
20201022034041 53 35 0.0 0.0 0.00 1.14 1.14 95 1023.4
20201022033542 53 35 0.0 0.0 0.00 1.14 1.14 95 1023.4
20201022033106 53 34 0.0 0.0 0.00 1.14 1.14 96 1023.5
20201022032623 53 35 0.0 0.0 0.00 1.14 1.14 96 1023.6
20201022032055 53 35 0.0 0.0 0.00 1.14 1.14 95 1023.6
20201022031619 53 35 0.0 0.0 0.00 1.14 1.14 96 1023.8
20201022031040 53 35 0.0 0.0 0.00 1.14 1.14 96 1024.0
20201022030539 53 35 0.0 0.0 0.00 1.14 1.14 96 1024.1
20201022030129 53 35 0.0 0.0 0.00 1.14 1.14 96 1024.2
20201022025539 53 35 0.0 0.0 0.00 1.14 1.14 96 1024.1
20201022024617 52 35 0.0 0.0 0.00 1.14 1.14 96 1023.9
20201022024038 52 35 0.0 0.0 0.00 1.14 1.14 96 1023.7
20201022023541 52 35 0.0 0.0 0.00 1.14 1.14 95 1023.5
20201022023102 52 35 0.0 0.0 0.00 1.14 1.14 95 1023.4
20201022022542 52 35 0.0 0.0 0.00 1.14 1.14 95 1023.4
20201022022039 52 35 0.0 0.0 0.00 1.14 1.14 95 1023.5
20201022021616 52 35 0.0 0.0 0.00 1.14 1.14 95 1023.4
20201022021036 52 35 0.0 0.0 0.00 1.14 1.14 94 1023.4
20201022020536 52 35 0.0 0.0 0.00 1.14 1.14 94 1023.3